Preview of NWS' New Version of Forecast
This preview is not operational and should not be used for support decisions.

Regional Weather Roundup (RWR)

Issued by National Weather Service (NWS)

                            
000
ASUS44 KJAN 222310
RWRMS 

MISSISSIPPI HOURLY WEATHER ROUNDUP
NATIONAL WEATHER SERVICE JACKSON MS
600 PM CDT SAT JUN 22 2019

NOTE: "FAIR: INDICATES FEW OR NO CLOUDS BELOW 12,000 FEET WITH NO
SIGNIFICANT WEATHER AND/OR OBSTRUCTIONS TO VISIBILITY.

MSZ001>002-007>008-010>013-018>021-025>028-034>036-230000-
NORTHWEST MISSISSIPPI
  
CITY           SKY/WX    TMP DP  RH WIND       PRES   REMARKS
BATESVILLE     FAIR      79  70  73 VRB6G12   30.01F                  
CLARKSDALE     MOSUNNY   95  75  52 S13       29.98S HX 107           
CLEVELAND      MOCLDY    88  76  66 S9        29.99S HX  98           
GREENWOOD      PTSUNNY   90  73  57 S7        30.01R HX  98           
GREENVILLE     FAIR      89  74  60 S10       29.98S HX  98           
OLIVE BRANCH   PTSUNNY   73  68  83 S6        30.01S                  
OXFORD         FAIR      70  68  94 VRB6G13   30.05F                  
TUNICA           N/A     86  70  58 SE15      29.98F HX  90           
WINONA         FAIR      90  73  56 MISG      30.02F HX  98           
$$

MSZ003>006-009-014>017-022>024-029>033-037>039-230000-
NORTHEAST MISSISSIPPI
  
CITY           SKY/WX    TMP DP  RH WIND       PRES   REMARKS
ABERDEEN       FAIR      73  73 100 SE3       30.04F FOG              
COLUMBUS AFB   FAIR      76  67  72 SE6       30.04S                  
CORINTH        FAIR      82  68  61 W12G21    30.04R                  
GOLDN TRIANGLE FAIR      83  71  67 NE15G22   30.04R                  
STARKVILLE     FAIR      90  73  58 CALM      30.03F HX  98           
TUPELO         PTSUNNY   75  71  87 NW7       30.06R                  
$$

MSZ040-058-230000-
CENTRAL MISSISSIPPI
  
CITY           SKY/WX    TMP DP  RH WIND       PRES   REMARKS
JACKSON INTL   FAIR      92  70  48 S10       30.02R HX  97           
JACKSON HAWKNS FAIR      92  72  51 S7        30.02S HX  99           
MADISON        FAIR      90  72  55 S7        30.02R HX  96           
MERIDIAN KEY   FAIR      93  73  52 S9        30.03S HX 102           
MERIDIAN NAS   FAIR      92  72  51 SW5       30.03F HX  99           
RAYMOND          N/A     93  77  59 S7        30.01R HX 107           
VICKSBURG VKS  CLEAR     93  75  55 S9        30.00R HX 104           
$$

MSZ059>079-230000-
SOUTH MISSISSIPPI
  
CITY           SKY/WX    TMP DP  RH WIND       PRES   REMARKS
BROOKHAVEN     FAIR      91  73  55 E8G15     30.04S HX 100           
HATTIESBURG    FAIR      92  73  53 S7        30.04S HX 100           
LAUREL         CLEAR     92  72  51 S8        30.03S HX 100           
MCCOMB         FAIR      92  74  55 S10       30.02F HX 101           
NATCHEZ        FAIR      92  77  61 S9        30.01F HX 105           
PINE BELT      FAIR      90  75  61 S8        30.04F HX 100           
$$

MSZ080>082-230000-
COASTAL MISSISSIPPI
  
CITY           SKY/WX    TMP DP  RH WIND       PRES   REMARKS
BILOXI         FAIR      89  78  71 S13       30.05F HX 103           
PASCAGOULA     PTSUNNY   90  77  65 VRB3      30.06S HX 103           
GULFPORT       PTSUNNY   87  78  74 S12       30.05S HX 100           
$$

LAZ007>009-015>016-023>026-230000-
NORTHEAST LOUISIANA
  
CITY           SKY/WX    TMP DP  RH WIND       PRES   REMARKS
BASTROP        FAIR      92  73  53 S6        29.98S HX 101           
TALLULAH/VBURG FAIR      90  76  63 S7        30.00S HX 101           
VIDALIA        FAIR      92  76  59 SE10      29.99F HX 105           
$$